[[{"header":{"parameterUnit":"m.s-1","parameterCategory":1,"la1":30.2992,"la2":30.254,"lo1":-89.0895,"lo2":-89.0443,"dy":0.0025,"dx":0.0025,"nx":19,"ny":19,"refTime":"2026-05-19T09:00:00:Z","depth":0,"parameterNumber":2,"parameterNumberName":"U-component_of_WINDS"},"data":[0,0,0,-2.3877,-2.3877,-2.3864,-2.3864,-2.3868,-2.3868,0,0,0,0,0,0,0,0,0,0,0,-2.3891,-2.3892,-2.3877,-2.3877,-2.3864,-2.3864,-2.3868,-2.3868,0,0,0,0,0,0,0,0,0,0,0,-2.3891,-2.3892,-2.3892,-2.3877,-2.3864,-2.3864,-2.3868,-2.387,0,0,0,0,0,0,0,0,0,0,-2.3879,-2.3903,-2.3892,-2.3892,-2.3877,-2.3864,-2.3864,-2.387,-2.387,-2.3881,0,-2.3894,0,-2.3881,-2.3869,-2.387,0,0,0,-2.3868,-2.3903,-2.389,-2.3892,-2.3877,-2.3865,-2.3868,-2.387,-2.387,-2.3882,-2.3894,-2.3894,-2.3881,-2.387,-2.387,-2.3963,-2.3964,0,0,-2.3869,-2.3895,-2.389,-2.3891,-2.3893,-2.3868,-2.3867,-2.387,-2.3885,-2.3894,-2.3893,-2.3881,-2.387,-2.387,-2.3962,-2.3963,0,0,0,-2.3877,-2.3896,-2.3882,-2.3891,-2.3887,-2.3868,-2.3867,-2.3885,-2.3878,-2.3893,-2.3881,-2.387,-2.387,-2.3961,-2.3962,-2.4028,0,0,0,-2.3877,-2.39,-2.3883,-2.3899,-2.3888,-2.3886,-2.3883,-2.3878,-2.3877,-2.3881,-2.387,-2.387,-2.396,-2.3962,-2.4024,-2.4055,0,0,0,-2.3888,-2.3902,-2.3904,-2.39,-2.3896,-2.3885,-2.3878,-2.3877,-2.3871,-2.387,-2.387,-2.3959,-2.3961,-2.4021,-2.4049,-2.4087,0,0,0,-2.3909,-2.3962,-2.3905,-2.3961,-2.3896,-2.3926,-2.3878,-2.3899,-2.3906,-2.387,-2.396,-2.3962,-2.402,-2.4045,-2.4083,-2.4123,-2.4142,0,0,-2.3991,-2.3973,-2.4004,-2.3952,-2.3999,-2.3926,-2.3982,-2.3964,-2.394,-2.3957,-2.3959,-2.4026,-2.4049,-2.4086,-2.4241,-2.4256,0,0,0,-2.4038,-2.4061,-2.4067,-2.4075,-2.4063,-2.4055,-2.4025,-2.4019,-2.4032,-2.3954,-2.4049,-2.4062,-2.4083,-2.41,-2.4113,-2.413,-2.3972,-2.3971,-2.3971,-2.4191,-2.4158,-2.4207,-2.4173,-2.4182,-2.4151,-2.4155,-2.4141,-2.4105,-2.4128,-2.4133,-2.4231,-2.4252,-2.4262,-2.4279,-2.4151,-2.4152,-2.4152,-2.4152,-2.4309,-2.4335,-2.4287,-2.4316,-2.4282,-2.4306,-2.428,-2.4254,-2.4272,-2.4224,-2.4241,-2.4191,-2.428,-2.4293,-2.4157,-2.4156,-2.4155,-2.4155,-2.4155,-2.4405,-2.4411,-2.4403,-2.4412,-2.4423,-2.4387,-2.4407,-2.4374,-2.4344,-2.4361,-2.4362,-2.4361,-2.4355,-2.4364,-2.4364,-2.4365,-2.4365,-2.4365,-2.4365,-2.4507,-2.4496,-2.4516,-2.4509,-2.451,-2.4508,-2.4479,-2.448,-2.4472,-2.4447,-2.4447,-2.4409,-2.4295,-2.4266,-2.437,-2.4369,-2.4369,-2.4368,-2.4368,-2.4637,-2.4603,-2.4635,-2.4637,-2.4625,-2.4639,-2.4598,-2.4602,-2.4598,-2.4609,-2.4568,-2.4489,-2.4469,-2.4458,-2.4434,-2.4575,-2.4575,-2.4575,-2.4575,-2.4718,-2.4705,-2.473,-2.4735,-2.4736,-2.4703,-2.4741,-2.472,-2.4693,-2.4688,-2.4664,-2.463,-2.462,-2.4605,-2.4591,-2.4569,-2.4741,-2.4741,-2.4741,-2.4796,-2.4782,-2.482,-2.4792,-2.4782,-2.4774,-2.4809,-2.4817,-2.4779,-2.4747,-2.4684,-2.4677,-2.4622,-2.4606,-2.4572,-2.4551,-2.4509,0,0]},{"header":{"parameterUnit":"m.s-1","parameterCategory":1,"la1":30.2992,"la2":30.254,"lo1":-89.0895,"lo2":-89.0443,"dy":0.0025,"dx":0.0025,"nx":19,"ny":19,"refTime":"2026-05-19T09:00:00:Z","depth":0,"parameterNumber":3,"parameterNumberName":"V-component_of_WINDS"},"data":[0,0,0,3.0822,3.0823,3.0883,3.0883,3.0959,3.0959,0,0,0,0,0,0,0,0,0,0,0,3.0804,3.0804,3.0821,3.0823,3.0883,3.0883,3.0959,3.0959,0,0,0,0,0,0,0,0,0,0,0,3.0803,3.0804,3.0805,3.0823,3.0883,3.0883,3.0958,3.0913,0,0,0,0,0,0,0,0,0,0,3.0856,3.0839,3.0804,3.0805,3.0824,3.0882,3.0883,3.0911,3.0916,3.0931,0,3.0945,0,3.0953,3.0964,3.0965,0,0,0,3.0823,3.0834,3.0851,3.0805,3.0824,3.0882,3.0856,3.0914,3.092,3.0938,3.0946,3.0949,3.0955,3.0965,3.0965,3.1054,3.1054,0,0,3.082,3.0814,3.0847,3.0855,3.0845,3.0854,3.0858,3.0918,3.0926,3.0946,3.0951,3.0956,3.0965,3.0966,3.1053,3.1054,0,0,0,3.081,3.0812,3.0827,3.0851,3.0862,3.0856,3.086,3.0923,3.0928,3.0951,3.0957,3.0966,3.0967,3.1053,3.1053,3.1069,0,0,0,3.0808,3.0806,3.0825,3.0822,3.0861,3.0893,3.0864,3.0924,3.0931,3.0956,3.0966,3.0967,3.1052,3.1053,3.1068,3.1078,0,0,0,3.08,3.0805,3.0814,3.0822,3.0847,3.0893,3.0901,3.0926,3.0935,3.0965,3.0968,3.1052,3.1053,3.1067,3.1076,3.1101,0,0,0,3.0789,3.0826,3.0814,3.0857,3.0847,3.0902,3.0901,3.0942,3.097,3.0966,3.1052,3.1053,3.1066,3.1075,3.11,3.1122,3.1131,0,0,3.0832,3.083,3.0856,3.0848,3.0903,3.0893,3.0951,3.0981,3.0989,3.1032,3.1034,3.1068,3.1076,3.1101,3.1177,3.1184,0,0,0,3.0868,3.0887,3.0903,3.093,3.0954,3.0977,3.0999,3.101,3.1047,3.101,3.1084,3.1088,3.1103,3.1114,3.112,3.1134,3.1058,3.1058,3.1058,3.0921,3.093,3.0974,3.0991,3.1017,3.104,3.1062,3.1081,3.1081,3.1099,3.1112,3.1158,3.117,3.1175,3.1189,3.1123,3.1123,3.1123,3.1124,3.0987,3.1016,3.1016,3.106,3.1069,3.1105,3.1129,3.1129,3.1164,3.1148,3.1161,3.1144,3.1182,3.1195,3.1125,3.1125,3.1124,3.1124,3.1124,3.1024,3.1039,3.1053,3.1094,3.1124,3.1139,3.1174,3.118,3.1187,3.12,3.1216,3.1216,3.1217,3.1207,3.1207,3.1207,3.1207,3.1207,3.1207,3.1057,3.1073,3.1101,3.1132,3.1151,3.1176,3.1201,3.122,3.1242,3.1244,3.1244,3.1244,3.1183,3.1169,3.121,3.121,3.1209,3.1209,3.1209,3.1123,3.111,3.1154,3.1173,3.121,3.1241,3.1249,3.1287,3.1303,3.132,3.1317,3.1271,3.127,3.1265,3.1253,3.1314,3.1314,3.1314,3.1314,3.1156,3.1156,3.1204,3.1234,3.1265,3.1277,3.1328,3.1348,3.1366,3.1377,3.1368,3.1353,3.1348,3.135,3.1343,3.1333,3.1412,3.1412,3.1412,3.1198,3.1201,3.1244,3.1262,3.1291,3.1317,3.1366,3.1401,3.1418,3.1416,3.1386,3.1381,3.1356,3.1347,3.1346,3.1336,3.1316,0,0]}]]